Weather History for Marysville, OH

Change the Weather History Date:

Friday, February 1, 2013

  Actual Average (KDLZ) Record (KDLZ)
Temperature  
Mean Temperature 11 °F -  
Max Temperature 16 °F 35 °F 60 °F (1989)
Min Temperature 6 °F 17 °F -10 °F (1978)
Degree Days  
Heating Degree Days 54    
Moisture  
Dew Point 3 °F    
Average Humidity 68    
Maximum Humidity 79    
Minimum Humidity 61    
Precipitation  
Precipitation 0.00 in - - ()
Sea Level Pressure  
Sea Level Pressure 30.22 in    
Wind  
Wind Speed 0 mph (North)    
Max Wind Speed 0 mph    
Max Gust Speed -    
Visibility 10 miles    
Events      
Averages and records for this station are not official NWS values.
T = Trace of Precipitation, MM = Missing Value Source: NWS Daily Summary

Daily Weather History Graph

Daily Weather History Graph

Search for Another Location

Airport:

Trip Planner

Search our weather history database for the weather conditions in past years. The results will help you decide how hot, cold, wet, or windy it might be!

Date:

Astronomy

Feb. 01, 2013 Rise Set
Actual Time 7:42 AM EST 5:52 PM EST
Civil Twilight 7:13 AM EST 6:21 PM EST
Nautical Twilight 6:40 AM EST 6:53 PM EST
Astronomical Twilight 6:09 AM EST 7:25 PM EST
Moon 11:59 PM EST (2/1) 10:14 AM EST (2/1)
Length of Visible Light 11h 07m
Length of Day
10h 10m
Waning Gibbous, 70% of the Moon is Illuminated
Feb 1
Waning Gibbous
Feb 3
Last Quarter
Feb 10
New
Feb 17
First Quarter
Feb 25
Full

Hourly Weather History & Observations

Time (EST) Temp. Dew Point Humidity Pressure Visibility Wind Dir Wind Speed Gust Speed Precip Events Conditions
12:13 AM 16.3 °F 7.5 °F 68% 29.94 in 10.0 mi Calm Calm - N/A   Overcast
12:34 AM 16.0 °F 7.3 °F 69% 29.95 in 10.0 mi Calm Calm - N/A   Overcast
12:54 AM 15.4 °F 6.4 °F 68% 29.96 in 10.0 mi Calm Calm - N/A   Overcast
1:13 AM 14.0 °F 4.6 °F 66% 29.96 in 10.0 mi Calm Calm - N/A   Mostly Cloudy
1:34 AM 14.0 °F 6.1 °F 71% 29.97 in 10.0 mi Calm Calm - N/A   Mostly Cloudy
1:54 AM 13.5 °F 7.7 °F 78% 29.98 in 2.5 mi Calm Calm - N/A   Overcast
2:13 AM 13.1 °F 5.2 °F 71% 30.00 in 10.0 mi Calm Calm - N/A   Overcast
2:34 AM 12.2 °F 4.3 °F 71% 30.02 in 7.0 mi Calm Calm - N/A   Overcast
2:54 AM 11.3 °F 3.7 °F 72% 30.03 in 7.0 mi Calm Calm - N/A   Overcast
2:58 AM 11.3 °F 3.2 °F 70% 30.04 in 10.0 mi Calm Calm - N/A   Overcast
3:25 AM 10.4 °F 5.0 °F 79% 30.05 in 5.0 mi Calm Calm - N/A   Overcast
3:43 AM 10.4 °F 3.6 °F 74% 30.07 in 5.0 mi Calm Calm - N/A   Overcast
3:54 AM 10.2 °F 2.3 °F 70% 30.07 in 7.0 mi Calm Calm - N/A   Mostly Cloudy
4:14 AM 9.9 °F 1.4 °F 69% 30.08 in 10.0 mi Calm Calm - N/A   Mostly Cloudy
4:32 AM 9.3 °F 2.1 °F 73% 30.09 in 7.0 mi Calm Calm - N/A   Mostly Cloudy
4:54 AM 8.8 °F 1.4 °F 72% 30.10 in 10.0 mi Calm Calm - N/A   Overcast
5:00 AM 8.6 °F 1.2 °F 72% 30.11 in 7.0 mi Calm Calm - N/A   Overcast
5:25 AM 8.6 °F 1.4 °F 73% 30.13 in 10.0 mi Calm Calm - N/A   Mostly Cloudy
5:45 AM 6.8 °F -0.4 °F 72% 30.14 in 10.0 mi Calm Calm - N/A   Mostly Cloudy
6:05 AM 6.8 °F -0.4 °F 72% 30.14 in 10.0 mi Calm Calm - N/A   Scattered Clouds
6:25 AM 6.8 °F -0.4 °F 72% 30.15 in 10.0 mi Calm Calm - N/A   Clear
6:45 AM 6.8 °F -0.4 °F 72% 30.17 in 10.0 mi Calm Calm - N/A   Clear
7:05 AM 6.8 °F -0.4 °F 72% 30.18 in 10.0 mi Calm Calm - N/A   Clear
7:25 AM 6.8 °F -2.2 °F 67% 30.19 in 10.0 mi Calm Calm - N/A   Clear
7:45 AM 6.8 °F -0.4 °F 72% 30.20 in 10.0 mi Calm Calm - N/A   Clear
8:05 AM 6.8 °F -0.4 °F 72% 30.22 in 10.0 mi Calm Calm - N/A   Clear
8:25 AM 6.8 °F -2.2 °F 67% 30.23 in 10.0 mi Calm Calm - N/A   Clear
8:45 AM 6.8 °F -2.2 °F 67% 30.24 in 10.0 mi Calm Calm - N/A   Clear
9:05 AM 6.8 °F -0.4 °F 72% 30.25 in 10.0 mi Calm Calm - N/A   Clear
9:25 AM 8.6 °F -0.4 °F 67% 30.25 in 10.0 mi Calm Calm - N/A   Clear
9:45 AM 8.6 °F -0.4 °F 67% 30.26 in 10.0 mi Calm Calm - N/A   Clear
10:06 AM 8.8 °F -0.4 °F 66% 30.27 in 10.0 mi Calm Calm - N/A   Clear
10:14 AM 9.3 °F -0.2 °F 65% 30.28 in 10.0 mi Calm Calm - N/A   Clear
10:34 AM 10.0 °F 0.5 °F 65% 30.28 in 10.0 mi Calm Calm - N/A   Clear
10:54 AM 10.4 °F 0.7 °F 65% 30.29 in 10.0 mi Calm Calm - N/A   Clear
11:14 AM 11.3 °F 1.6 °F 65% 30.29 in 10.0 mi Calm Calm - N/A   Clear
11:34 AM 11.7 °F 2.1 °F 66% 30.30 in 10.0 mi Calm Calm - N/A   Clear
11:54 AM 12.6 °F 2.3 °F 64% 30.30 in 10.0 mi Calm Calm - N/A   Clear
12:14 PM 12.9 °F 2.7 °F 64% 30.30 in 10.0 mi Calm Calm - N/A   Clear
12:34 PM 13.3 °F 3.2 °F 64% 30.30 in 10.0 mi Calm Calm - N/A   Clear
12:53 PM 13.5 °F 3.2 °F 64% 30.30 in 10.0 mi Calm Calm - N/A   Scattered Clouds
1:14 PM 13.1 °F 3.0 °F 64% 30.30 in 10.0 mi Calm Calm - N/A   Mostly Cloudy
1:34 PM 13.1 °F 3.0 °F 64% 30.31 in 10.0 mi Calm Calm - N/A   Mostly Cloudy
1:54 PM 13.3 °F 3.0 °F 64% 30.30 in 10.0 mi Calm Calm - N/A   Overcast
2:14 PM 14.0 °F 3.0 °F 62% 30.30 in 10.0 mi Calm Calm - N/A   Overcast
2:34 PM 13.8 °F 3.2 °F 63% 30.30 in 10.0 mi Calm Calm - N/A   Overcast
2:54 PM 13.8 °F 4.1 °F 65% 30.30 in 10.0 mi Calm Calm - N/A   Overcast
3:14 PM 14.9 °F 4.3 °F 63% 30.30 in 10.0 mi Calm Calm - N/A   Overcast
3:34 PM 14.5 °F 3.7 °F 62% 30.31 in 10.0 mi Calm Calm - N/A   Overcast
3:54 PM 14.4 °F 3.4 °F 62% 30.31 in 10.0 mi Calm Calm - N/A   Overcast
4:09 PM 14.9 °F 3.9 °F 62% 30.31 in 10.0 mi Calm Calm - N/A   Overcast
4:34 PM 13.8 °F 2.7 °F 61% 30.30 in 10.0 mi Calm Calm - N/A   Overcast
4:54 PM 13.8 °F 3.6 °F 64% 30.31 in 10.0 mi Calm Calm - N/A   Overcast
5:14 PM 13.3 °F 3.7 °F 66% 30.31 in 10.0 mi Calm Calm - N/A   Overcast
5:34 PM 13.1 °F 3.4 °F 65% 30.31 in 10.0 mi Calm Calm - N/A   Overcast
5:54 PM 12.9 °F 3.2 °F 65% 30.31 in 10.0 mi Calm Calm - N/A   Overcast
6:14 PM 12.7 °F 3.4 °F 66% 30.31 in 10.0 mi Calm Calm - N/A   Overcast
6:30 PM 12.9 °F 3.6 °F 66% 30.31 in 10.0 mi Calm Calm - N/A   Overcast
6:45 PM 12.2 °F 3.2 °F 67% 30.32 in 10.0 mi Calm Calm - N/A   Overcast
6:58 PM 12.9 °F 3.9 °F 67% 30.32 in 10.0 mi Calm Calm - N/A   Overcast
7:06 PM 12.9 °F 3.7 °F 67% 30.32 in 10.0 mi Calm Calm - N/A   Overcast
7:22 PM 12.9 °F 4.1 °F 68% 30.32 in 10.0 mi Calm Calm - N/A   Overcast
7:45 PM 12.2 °F 3.2 °F 67% 30.33 in 10.0 mi Calm Calm - N/A   Overcast
8:05 PM 12.2 °F 3.2 °F 67% 30.32 in 10.0 mi Calm Calm - N/A   Overcast
8:25 PM 12.2 °F 3.2 °F 67% 30.32 in 10.0 mi Calm Calm - N/A   Overcast
8:45 PM 12.2 °F 3.2 °F 67% 30.31 in 10.0 mi Calm Calm - N/A   Overcast
9:05 PM 12.2 °F 3.2 °F 67% 30.31 in 10.0 mi Calm Calm - N/A   Overcast
9:25 PM 12.2 °F 3.2 °F 67% 30.30 in 10.0 mi Calm Calm - N/A   Scattered Clouds
9:45 PM 12.2 °F 3.2 °F 67% 30.30 in 10.0 mi Calm Calm - N/A   Clear
10:05 PM 10.4 °F 3.2 °F 73% 30.30 in 10.0 mi Calm Calm - N/A   Clear
10:25 PM 10.4 °F 3.2 °F 73% 30.30 in 10.0 mi Calm Calm - N/A   Clear
10:45 PM 10.4 °F 3.2 °F 73% 30.30 in 10.0 mi Calm Calm - N/A   Clear
11:05 PM 10.4 °F 3.2 °F 73% 30.29 in 10.0 mi Calm Calm - N/A   Clear
11:25 PM 10.4 °F 3.2 °F 73% 30.29 in 10.0 mi Calm Calm - N/A   Clear
11:45 PM 8.6 °F 3.2 °F 79% 30.29 in 10.0 mi Calm Calm - N/A   Clear